weather.gov     
National Weather Service

Regional Weather Roundup
NWS Homepage
This page is being discontinued on March 12, 2014.
The same data is available at this site. Please update your bookmarks.
Thank you, and we apologize for the inconvenience.
Please send an email to SR-SRH.Webmaster@noaa.gov with any concerns.


Current Version
Previous Version:    01  02  03  04  05  06  07  08  09  10  11  12  13  14  15  16  17  18  19  20  21  22  23  24  25  26  27  28  29  30  
   31  32  33  34  35  36  37  38  39  40  41  42  43  44  45  46  47  48  49  50  51  52  53  54  
[Printable]
295
ASUS44 KOUN 241500
RWROK

WEATHER ROUNDUP FOR OKLAHOMA
NATIONAL WEATHER SERVICE NORMAN OK
1000 AM CDT THU APR 24 2014

NOTE: "FAIR" INDICATES FEW OR NO CLOUDS BELOW 12,000 FEET WITH NO
      SIGNIFICANT WEATHER AND/OR OBSTRUCTIONS TO VISIBILITY.

OKZ001>007-009>012-014-015-017-241600-
NORTHWEST OKLAHOMA AND THE PANHANDLE

CITY           SKY/WX    TMP DP  RH WIND       PRES   REMARKS
GAGE           CLOUDY    59  37  44 N21G39    29.88S
ENID/VANCE AFB PTSUNNY   63  57  82 NW23G38   29.74R
ENID/WOODRING  CLOUDY    61  54  77 NW25G31   29.73R
$$

OKZ016-021>023-033>039-044-045-241600-
SOUTHWEST OKLAHOMA

CITY           SKY/WX    TMP DP  RH WIND       PRES   REMARKS
LAWTON/REGL    SUNNY     67  51  56 NW24G39   29.76R
LAWTON/FT SILL SUNNY     66  51  58 N26G36    29.76R
FREDERICK      SUNNY     68  46  45 NW30G46   29.79R
CLINTON        SUNNY     63  39  41 NW30G41   29.85R
HOBART         SUNNY     65  43  44 NW30G41   29.84R
$$

OKZ018>020-024>031-241600-
CENTRAL OKLAHOMA

CITY           SKY/WX    TMP DP  RH WIND       PRES   REMARKS
OKLAHOMA CITY  CLOUDY    61  52  72 NW22G31   29.74R
OKC/WILEY POST CLOUDY    61  51  70 NW21G29   29.74R
OKC/TINKER AFB PTSUNNY   68  61  77 W28G35    29.72R
STILLWATER     LGT RAIN  71  62  73 SW13      29.65S
GUTHRIE        CLOUDY    62  54  74 NW18G26   29.73R
$$

OKZ008-013-054>072-241600-
NORTHEAST OKLAHOMA

CITY           SKY/WX    TMP DP  RH WIND       PRES   REMARKS
TULSA          CLOUDY    68  63  84 S17G26    29.68R
TULSA/JONES    CLOUDY    69  62  78 S10G24    29.69F
PONCA CITY     CLOUDY    62  56  80 NW14G23   29.68R
BARTLESVILLE   CLOUDY    71  62  73 S10G22    29.66R
MUSKOGEE       CLOUDY    64  62  93 S9        29.76R
$$

OKZ032-040>043-046>053-073>077-241600-
SOUTH CENTRAL/SOUTHEAST OKLAHOMA

CITY           SKY/WX    TMP DP  RH WIND       PRES   REMARKS
MCALESTER      CLOUDY    66  60  81 S7        29.77R
$$





U.S. Dept. of Commerce
NOAA National Weather Service
1325 East West Highway
Silver Spring, MD 20910
E-mail: w-nws.webmaster@noaa.gov
Page last modified: May 16, 2007
NATIONAL WEATHER SERVICE: for Safety, for Work, for Fun - FOR LIFE